Regional Weather Roundup
Issued by NWS

Home | Current Version | Previous Version | Graphics & Text | Print | Product List | Glossary On
Versions: 1 2 3 4 5 6 7 8 9 10 11 12 13 14 15 16 17 18 19 20 21 22 23 24 25 26 27 28 29 30 31 32 33 34 35 36 37 38 39 40 41 42 43 44 45 46 47 48 49 50
000
ASUS43 KOAX 171910
RWRNE

WEATHER ROUNDUP FOR NEBRASKA
NATIONAL WEATHER SERVICE OMAHA NE
200 PM CDT FRI APR 17 2015

NOTES: SATELLITE DATA IS BEING USED TO AUGMENT CLOUD COVER ABOVE
       12000 FEET.
       "FAIR" INDICATES FEW OR NO CLOUDS BELOW 12,000 FEET WITH NO
       SIGNIFICANT WEATHER AND/OR OBSTRUCTIONS TO VISIBILITY.

  * THESE STATIONS DO NOT REPORT WEATHER SUCH AS RAIN...SNOW OR FOG.

NEZ001>004-019>022-054>056-172000-
NEBRASKA PANHANDLE

CITY           SKY/WX    TMP DP  RH WIND       PRES   REMARKS
SCOTTSBLUFF    LGT RAIN  47  47 100 NE20      30.06S
ALLIANCE       LGT RAIN  45  44  97 NE20      30.08S FOG
CHADRON        LGT RAIN  46  42  86 NE12      30.16F FOG
KIMBALL        RAIN      48  48  98 E17G26    30.01S
SIDNEY         CLOUDY    50  48  93 E17G28    30.03S FOG
$$

NEZ057>060-069>072-079>082-172000-
SOUTHWEST NEBRASKA

CITY           SKY/WX    TMP DP  RH WIND       PRES   REMARKS
NORTH PLATTE   CLOUDY    55  53  93 E8        30.07S
IMPERIAL       PTSUNNY   58  53  84 E14G25    30.01F
LEXINGTON      CLOUDY    60  58  94 E9        30.06S FOG
MCCOOK         CLOUDY    60  53  77 E10       30.02F
OGALLALA       CLOUDY    53  52  96 E13G18    30.06S FOG
$$

NEZ005>010-023>029-035>040-094-172000-
NORTH CENTRAL NEBRASKA

CITY           SKY/WX    TMP DP  RH WIND       PRES   REMARKS
VALENTINE      LGT RAIN  55  47  74 NE9       30.13F
AINSWORTH      RAIN      55  51  86 NE10      30.13F
BROKEN BOW     CLOUDY    58  55  90 E14       30.07S FOG
O`NEILL        LGT RAIN  62  53  71 CALM      30.11F
ORD            HVY RAIN  58  54  86 S7        30.08S VSB 3/4
THEDFORD       DRIZZLE   55  54  95 E9        30.10F
$$

NEZ041-046>049-061>064-073>077-083>087-172000-
SOUTH CENTRAL NEBRASKA

CITY           SKY/WX    TMP DP  RH WIND       PRES   REMARKS
GRAND ISLAND   CLOUDY    66  58  75 E12       30.06F
AURORA         CLOUDY    65  62  88 E13       30.05F
HASTINGS       CLOUDY    64  58  80 E8        30.04F
HEBRON         CLOUDY    67  56  66 E6        30.03F
HOLDREGE       PTSUNNY   61  58  91 E13       30.04F FOG
KEARNEY *      CLOUDY    61  55  82 E9        30.06F
YORK           CLOUDY    68  59  73 SE9       30.06F
$$

NEZ011>018-030>034-042>045-172000-
NORTHEAST NEBRASKA

CITY           SKY/WX    TMP DP  RH WIND       PRES   REMARKS
ALBION         CLOUDY    67  51  57 SE9       30.08S
BLAIR          PTSUNNY   74  49  42 SE10      30.05F
COLUMBUS *     CLOUDY    70  52  52 SE7       30.08F
FREMONT        PTSUNNY   74  50  42 E6        30.05F
TEKAMAH        PTSUNNY   77  50  38 VRB7      30.04F
WAYNE          CLOUDY    72  48  42 E9        30.08F
$$

NEZ050>053-065>068-078-088>093-172000-
SOUTHEAST NEBRASKA

CITY           SKY/WX    TMP DP  RH WIND       PRES   REMARKS
LINCOLN        CLOUDY    71  54  54 SE9       30.05F
OMAHA EPPLEY   PTSUNNY   75  50  41 E7G16     30.04F
BEATRICE       CLOUDY    70  57  63 E9        30.02F
FALLS CITY     CLOUDY    75  54  47 E9        30.01F
NEBRASKA CITY  PTSUNNY   73  47  39 SE9       30.04F
PLATTSMOUTH    CLOUDY    73  49  42 SE6       30.05F
$$

NEZ044-045-051>053-067-172000-
OMAHA AREA

CITY           SKY/WX    TMP DP  RH WIND       PRES   REMARKS
OMAHA EPPLEY   PTSUNNY   75  50  41 E7G16     30.04F
BLAIR          PTSUNNY   74  49  42 SE10      30.05F
FREMONT        PTSUNNY   74  50  42 E6        30.05F
MILLARD        PTSUNNY   74  54  49 SE3       30.04F
OFFUTT AFB     PTSUNNY   74  54  48 E6        30.03F
PLATTSMOUTH    CLOUDY    73  49  42 SE6       30.05F
WAHOO          CLOUDY    73  47  40 E8        30.05F
$$



USA.gov is the U.S. government's official web portal to all federal, state and local government web resources and services.